Probability
0 0 0 0 0 0 0 0 0 0 0 0 0 0 0 0 0 0 0 0 0 0 0 0 0 0 0 0 0 0 0 0 0 0 0 0 0 0 0 0 0 0 0
0 0 0 0 0 0 0 0 0 0 0 0 0 0 0 0 0 0 0 0 0 0 0 0 0 0 0 0 0 0 0 0 0 0 0 0 0 0 0 0 0 0 0
0 0 0 0 0 0 0 0 0 0 0 0 0 0 0 0 0 0 0 0 0 0 0 0 0 0 0 0 0 0 0 0 0 0 0 0 0 0 0 0 0 0 0
0 0 0 0 0 0 0 0 0 0 0 0 0 0 0 0 0 0 0 0 0 0 0 0 0 0 0 0 0 0 0 0 0 0 0 0 0 0 0 0 0 0 0
0 0 0 0 0 0 0 0 0 0 0 0 0 0 0 0 0 0 0 0 0 0 0 0 0 0 0 0 0 0 0 0 0 0 0 0 0 0 0 0 0 0 0
0 0 0 0 0 0 0 0 0 0 0 0 0 1 1 1 0 0 0 0 0 0 0 0 0 0 0 0 0 0 0 0 0 0 0 0 0 0 0 0 0 0 0
0 0 0 0 0 0 0 0 0 0 0 0 0 1 1 1 0 0 0 0 0 0 0 0 0 0 0 0 0 0 0 0 0 0 0 0 0 0 0 0 0 0 0
0 0 0 0 0 0 0 0 0 0 0 0 0 0 0 0 0 0 0 0 0 0 0 0 0 0 0 0 0 0 0 0 0 0 0 0 0 0 0 0 0 0 0
0 0 0 0 0 0 0 0 0 0 0 0 0 0 0 0 0 0 0 0 0 0 0 0 0 0 0 0 0 0 0 0 0 0 0 0 0 0 0 0 0 0 0
0 0 0 0 0 0 0 0 0 0 0 0 0 0 0 0 0 0 0 0 0 0 0 0 0 0 0 0 0 0 0 0 0 0 0 0 0 0 0 0 0 0 0
0 0 0 0 0 0 0 0 0 0 0 0 0 0 0 0 0 0 0 0 0 0 0 0 0 0 0 0 0 0 0 0 0 0 0 0 0 0 0 0 0 0 0
0 0 0 0 0 0 0 0 0 0 0 0 0 0 0 0 0 0 0 0 0 0 0 0 0 0 0 0 0 0 0 0 0 0 0 0 0 0 0 0 0 0 0
0 0 0 0 0 0 0 0 0 0 0 0 0 0 0 0 0 0 0 0 0 0 0 0 0 0 0 0 0 0 0 0 0 0 0 0 0 0 0 0 0 0 0
0 0 0 0 0 0 0 0 0 0 0 0 0 0 0 0 0 0 0 0 0 0 0 0 0 0 0 0 0 0 0 0 0 0 0 0 0 0 0 0 0 0 0
0 0 0 0 0 0 0 0 0 0 0 0 0 0 0 0 0 0 0 0 0 0 0 0 0 0 0 0 0 0 0 0 0 0 0 0 0 0 0 0 0 0 0
0 0 0 0 0 0 0 0 0 0 0 0 0 0 0 0 0 0 0 0 0 0 0 0 0 0 0 0 0 0 0 0 0 0 0 0 0 0 0 0 0 0 0
0 0 0 0 0 0 0 0 0 0 0 0 0 0 0 0 0 0 0 0 0 0 0 0 0 0 0 0 0 0 0 0 0 0 0 0 0 0 0 0 0 0 0
0 0 0 0 0 0 0 0 0 0 0 0 0 0 0 0 0 0 0 0 0 0 0 0 0 0 0 0 0 0 0 0 0 0 0 0 0 0 0 0 0 0 0
0 0 0 0 0 0 0 0 0 0 0 0 0 0 0 0 0 0 0 0 0 0 0 0 0 0 0 0 0 0 0 0 0 0 0 0 0 0 0 0 0 0 0
0 0 0 0 0 0 0 0 0 0 0 0 0 0 0 0 0 0 0 0 0 0 0 0 0 0 0 0 0 0 0 0 0 0 0 0 0 0 0 0 0 0 0
0 0 0 0 0 0 0 0 0 0 0 0 0 0 0 0 0 0 0 0 0 0 0 0 0 0 0 0 0 0 0 0 0 0 0 0 0 0 0 0 0 0 0
0 0 0 0 0 0 0 0 0 0 0 0 0 0 0 0 0 0 0 0 0 0 0 0 0 0 0 0 0 0 0 0 0 0 0 0 0 0 0 0 0 0 0
0 0 0 0 0 0 0 0 0 0 0 0 0 0 0 0 0 0 0 0 0 0 0 0 0 0 0 0 0 0 0 0 0 0 0 0 0 0 0 0 0 0 0
0 0 0 0 0 0 0 0 0 0 0 0 0 0 0 0 0 0 0 0 0 0 0 0 0 0 0 0 0 0 0 0 0 0 0 0 0 0 0 0 0 0 0
0 0 0 0 0 0 0 0 0 0 0 0 0 0 0 0 0 0 0 0 0 0 0 0 0 0 0 0 0 0 0 0 0 0 0 0 0 0 0 0 0 0 0
0 0 0 0 0 0 0 0 0 0 0 0 0 0 0 0 0 0 0 0 0 0 0 0 0 0 0 0 0 0 0 0 0 0 0 0 0 0 0 0 0 0 0
Wind_Speed
12 13 14 15 15 16 16 17 17 16 17 17 17 17 17 18 17 16 17 16 17 16 15 16 17 14 11 10 10 10 11 11 13 9 5 5 8 8 7 8 7 8 8
11 11 13 13 14 15 16 17 16 16 16 16 16 16 17 17 17 17 18 17 17 17 17 16 17 13 15 12 11 12 11 11 11 12 6 5 7 8 7 8 6 6 6
9 10 12 13 13 14 15 15 15 15 15 15 15 16 17 16 17 17 17 17 17 17 17 17 17 16 16 13 13 12 10 9 9 9 7 4 3 4 5 5 5 5 6
8 9 11 12 12 13 13 13 13 14 14 14 15 15 15 15 16 15 16 16 16 16 16 16 16 16 16 16 13 13 11 10 9 8 6 4 3 4 4 5 5 6 6
8 9 10 10 10 11 11 11 11 12 12 13 13 14 14 13 13 14 15 15 16 16 15 15 15 15 16 14 11 11 11 10 8 8 7 5 5 5 7 6 6 5 5
8 9 9 8 9 9 9 9 9 10 11 11 12 13 13 11 13 16 15 14 14 14 14 13 13 13 13 16 16 15 14 13 11 9 8 8 9 8 6 6 6 5 5
7 8 7 7 8 8 8 8 9 10 10 11 12 12 13 14 14 16 17 14 13 13 13 12 10 9 12 12 13 15 14 15 15 12 11 11 9 10 10 9 9 7 6
6 7 7 7 7 7 7 8 9 8 9 10 10 11 11 11 12 14 15 15 13 12 12 12 11 10 10 11 10 10 10 11 12 11 11 10 8 9 11 10 9 5 3
6 7 6 6 7 6 7 8 8 7 8 8 7 9 10 10 11 12 13 10 10 11 10 9 10 10 12 13 10 10 9 8 7 8 7 6 7 10 10 7 7 6 4
7 7 6 5 6 7 8 7 5 6 7 5 6 7 8 9 9 11 13 7 8 8 6 6 8 9 11 13 11 10 10 8 5 4 4 4 5 8 13 9 9 7 4
7 6 6 5 6 7 6 5 4 5 5 5 6 6 6 7 8 10 12 8 8 7 6 6 6 11 12 13 11 9 10 7 5 6 5 4 4 4 5 5 5 5 5
7 7 6 5 5 4 4 4 4 4 5 5 5 5 5 5 6 8 11 12 9 7 7 5 6 10 11 11 9 8 9 7 5 5 5 5 5 5 4 4 3 2 1
7 7 6 5 4 4 4 4 4 4 4 5 5 6 5 4 5 8 9 11 11 7 5 7 7 8 8 7 8 9 7 5 5 5 6 5 4 5 5 4 4 4 5
7 7 5 5 5 4 3 4 4 5 5 5 6 6 5 4 4 4 4 5 6 5 4 4 6 7 6 5 5 5 4 5 5 5 5 4 4 5 5 4 4 4 3
7 6 5 4 4 4 4 3 4 5 5 5 5 4 5 6 5 6 5 4 4 5 4 3 3 3 4 4 4 4 3 4 4 4 4 5 5 5 4 4 4 4 4
7 6 5 4 4 4 4 3 3 5 5 6 7 6 5 6 5 7 8 8 8 9 5 4 5 5 6 6 5 5 4 5 4 4 5 5 6 6 5 4 4 5 5
7 6 5 4 4 4 4 4 4 3 2 4 5 6 7 6 7 7 7 8 9 9 5 5 5 6 6 5 5 5 5 4 4 5 5 5 5 5 5 6 6 5 5
7 6 5 5 5 4 4 4 4 4 4 3 2 3 4 5 5 6 6 6 4 5 4 5 5 5 5 5 5 4 4 4 4 5 5 5 5 5 6 6 6 6 5
7 5 5 5 5 4 4 4 4 3 3 3 2 2 2 3 3 4 5 3 4 4 4 4 3 4 4 4 4 4 4 5 5 5 5 5 5 5 5 5 5 7 6
6 7 6 5 5 4 3 3 4 3 3 3 3 2 1 1 1 2 2 2 3 3 3 3 3 3 3 3 4 4 4 4 5 5 5 5 5 5 6 7 6 6 5
6 6 7 5 5 4 4 4 4 3 3 3 2 2 2 2 2 2 2 2 2 3 3 3 3 3 3 3 3 4 5 5 5 5 5 5 5 5 5 5 6 5 5
5 5 5 5 5 4 4 4 4 3 3 3 2 1 1 1 2 2 2 2 1 1 2 2 2 2 3 3 4 4 5 5 5 5 5 5 5 5 5 5 5 5 5
5 5 5 5 5 5 5 4 4 3 3 3 2 2 1 2 2 2 1 1 1 1 1 1 1 2 2 2 2 3 4 4 4 5 5 5 5 5 5 6 7 6 6
5 5 5 5 5 5 5 4 4 3 3 3 2 2 1 1 1 1 1 1 1 1 1 1 1 2 2 1 1 2 2 3 3 4 6 5 5 5 5 5 6 7 6
5 5 5 5 4 4 4 4 4 4 3 3 2 2 1 1 1 1 1 1 1 1 0 0 0 1 1 2 2 2 3 4 4 4 5 5 6 6 6 6 5 6 6
5 5 4 4 4 4 4 4 4 4 3 3 2 2 2 2 1 1 1 1 1 1 1 0 0 0 1 1 1 2 3 4 5 6 5 5 5 5 6 5 7 6 7
Wind_Direction
237 233 232 233 232 231 232 233 232 232 229 227 225 223 222 221 219 220 222 221 223 225 223 225 228 226 226 224 223 225 228 231 248 255 242 219 197 201 199 207 210 209 212
245 241 239 237 235 233 233 234 233 233 232 230 227 225 224 223 221 220 223 223 224 226 225 224 227 225 226 225 224 225 227 225 236 248 237 212 212 205 200 201 204 206 212
251 246 244 241 237 235 235 235 233 232 232 230 228 226 225 223 222 222 223 224 225 227 226 225 226 224 227 226 225 227 227 225 228 237 234 200 196 183 188 196 201 207 211
253 248 246 243 240 238 237 235 234 233 232 230 229 229 228 226 224 223 223 225 227 227 227 226 226 224 226 226 226 227 224 223 222 226 227 202 183 165 173 188 201 206 211
259 253 251 250 247 243 239 237 235 233 233 231 230 230 229 227 225 222 221 224 226 228 228 228 228 226 227 226 224 222 218 220 217 220 224 210 193 177 196 188 201 193 202
260 257 258 256 252 246 242 238 234 233 233 230 228 228 228 226 220 216 219 224 226 227 229 229 227 223 224 224 224 221 216 217 217 217 220 218 213 203 188 181 180 179 205
264 264 260 255 252 250 247 241 236 235 233 231 231 228 230 229 217 212 212 221 226 227 227 227 226 222 219 223 223 223 224 223 219 217 221 221 210 197 183 187 191 194 203
268 267 264 256 254 252 245 242 241 239 235 234 233 231 233 233 217 214 211 220 230 230 227 224 223 221 216 214 218 222 225 226 223 224 230 229 216 192 186 188 184 169 107
277 275 272 263 259 253 248 248 247 241 239 236 234 231 232 235 219 213 207 221 227 230 227 224 221 222 216 207 211 220 225 231 224 215 221 223 205 185 169 153 158 165 185
280 280 278 269 261 256 252 252 250 242 242 237 236 233 232 237 224 213 205 217 224 227 226 223 220 220 214 202 209 213 220 221 195 182 187 186 185 180 178 183 178 180 173
289 286 279 267 259 259 259 253 245 240 240 237 239 243 238 237 231 218 207 213 219 221 222 222 222 213 211 205 205 213 218 199 181 180 178 173 167 173 183 186 186 185 182
294 287 280 271 262 257 251 253 237 228 234 238 239 249 246 236 230 226 215 215 213 214 220 218 215 205 204 203 204 204 193 177 169 173 182 186 183 181 177 172 157 132 98
295 285 282 278 265 247 239 245 243 229 230 236 233 240 246 238 234 229 222 217 213 214 219 210 199 195 193 198 198 186 179 179 180 188 197 197 184 164 148 136 119 105 82
294 292 289 282 279 264 243 235 237 236 232 230 231 236 241 239 234 222 216 213 209 209 209 192 184 186 189 179 175 180 189 189 190 195 188 163 144 149 158 158 160 152 137
300 295 291 281 276 274 260 244 240 248 235 234 241 236 235 242 234 207 199 205 201 196 172 174 184 185 195 195 187 181 181 180 186 177 166 159 162 165 165 159 156 161 173
304 300 294 293 290 281 277 283 251 238 243 241 242 241 250 246 233 215 209 204 194 178 172 193 199 201 204 202 197 192 188 191 188 177 176 174 176 178 172 167 172 182 185
299 298 297 293 287 283 279 273 281 293 233 238 243 241 242 239 227 220 209 195 188 180 195 204 205 204 203 200 198 195 194 187 179 179 181 180 179 179 175 177 182 186 186
306 299 294 290 287 283 281 277 271 268 277 291 281 248 244 238 231 218 200 183 193 194 208 208 207 202 199 197 196 193 185 176 178 182 183 181 181 180 181 184 189 192 186
311 305 303 299 293 288 285 281 277 271 269 278 294 301 278 243 229 217 192 203 206 207 207 208 206 202 200 194 189 185 183 184 182 182 184 183 183 184 187 187 190 189 188
314 315 312 304 298 294 290 282 275 270 269 271 274 282 286 252 245 231 214 213 213 214 208 209 206 200 196 191 184 180 182 185 183 185 186 185 187 189 191 189 189 189 193
316 318 319 310 306 305 298 288 281 275 268 267 276 284 223 232 242 240 230 226 223 220 213 207 202 196 192 186 183 183 185 188 188 189 187 186 186 188 187 186 186 187 183
317 317 318 313 310 307 302 298 289 280 271 269 283 298 256 241 244 243 241 244 244 235 223 206 200 196 195 194 191 188 190 190 189 189 188 184 183 183 180 181 181 182 183
319 320 319 316 312 308 303 298 294 287 282 278 275 273 262 249 246 243 248 260 254 249 236 206 200 198 191 190 190 191 193 193 190 188 186 183 183 183 182 183 183 183 187
319 319 316 314 314 314 311 307 303 299 295 288 278 270 267 270 271 269 269 274 267 256 221 200 200 200 197 200 194 189 188 183 180 185 183 182 182 181 181 182 186 188 190
320 319 316 313 313 312 311 311 311 311 309 304 303 301 296 282 276 284 297 295 286 283 310 304 203 189 190 194 197 196 185 178 177 174 174 177 179 180 179 181 182 182 185
319 317 314 312 312 312 312 312 314 315 312 313 313 309 305 301 296 301 311 314 308 315 329 345 43 163 222 215 196 188 184 182 179 175 173 174 176 178 177 180 180 183 182